ENHK

Details ICAO ENHK (HAA)
Name HASVIK
Region Norway
Timezone Europe/Oslo (UTC+2.0)
Plans Departing 10
Arriving 9
Stats Elevation 21 ft / 6 m (AMSL)
Location 70.486286° 22.141839°
Runways 1
Magnetic Variation 11.017° E
Sunrise Unknown / Unknown
Sunset Unknown / Unknown
Advertisement - Login to hide

Runways

ID Width Length Bearing (true) Bearing (mag) Surface Threshold Offset Overrun Length
11 98 ft / 30 m 3,170 ft / 966 m 118.86° 107.84° Asphalt 199 ft / 61 m 0 ft / 0 m
29 98 ft / 30 m 3,170 ft / 966 m 298.88° 287.86° Asphalt 362 ft / 110 m 0 ft / 0 m

Approach Navaids

Runway Type Ident Frequency Range Bearing (true) Bearing (mag) Slope Elevation
29 Localiser VK 111.50 MHz 18 nm / 33 km 297.00° 285.98° - 48 ft / 15 m (AMSL)

Map

Weather


0- 5 10 15 20 25 30 35+ Temperature / ° C

Clouds and Precipitation
Forecast for 2018-05-21 12:00 UTC. Updated 3 hours ago

Ground ~20,000 ft ~40,000 ft Winds

METAR

ENHK 211329Z 29013KT 9999 FEW035 09/04 Q1017

TAF

Not found

Frequencies

Tower 119.90 MHz INFO
Warning: Do not use this data for real-world aviation or navigation. No guarantee of current accuracy is given.